CCA351 ZYCC-ZKPY

Flight info

Callsign CCA351
Flight time 1h 12m
Altitude FL240
Route LEMO5L LEMOT A588 BIDIB A345 GASAN GAS21A
Aircraft DH8D/M-CDGHLORTWZ/B1D1

Departure

Time 2026-05-04 13:35
Airport Changchun Longjia International Airport (ZYCC)

Arrival

Time 2026-05-04 14:48
Airport Pyongyang Sunan International Airport (ZKPY)
Time Latitude Longitude Altitude Speed Heading
2026-05-04 13:35 43.96207 125.63102 4368 ft 149 kts 230°
2026-05-04 13:35 43.95546 125.62039 4997 ft 154 kts 230°
2026-05-04 13:36 43.94848 125.60927 5635 ft 159 kts 231°
2026-05-04 13:36 43.94130 125.59790 6277 ft 163 kts 232°
2026-05-04 13:36 43.93396 125.58631 6919 ft 167 kts 233°
2026-05-04 13:36 43.92635 125.57440 7562 ft 172 kts 233°
2026-05-04 13:37 43.91816 125.56226 8205 ft 176 kts 232°
2026-05-04 13:37 43.90976 125.55022 8842 ft 181 kts 232°
2026-05-04 13:37 43.90134 125.53800 9461 ft 185 kts 233°
2026-05-04 13:37 43.89326 125.52590 10054 ft 188 kts 235°
2026-05-04 13:38 43.88636 125.51528 10542 ft 190 kts 236°
2026-05-04 13:38 43.87798 125.50200 11106 ft 194 kts 237°
2026-05-04 13:38 43.86950 125.48818 11652 ft 197 kts 238°
2026-05-04 13:38 43.86103 125.47414 12174 ft 201 kts 239°
2026-05-04 13:39 43.85224 125.45940 12691 ft 205 kts 240°
2026-05-04 13:39 43.84345 125.44462 13181 ft 209 kts 240°
2026-05-04 13:39 43.83449 125.42954 13654 ft 213 kts 240°
2026-05-04 13:39 43.82539 125.41429 14111 ft 217 kts 240°
2026-05-04 13:40 43.81608 125.39868 14574 ft 219 kts 240°
2026-05-04 13:40 43.80664 125.38315 15018 ft 226 kts 237°
2026-05-04 13:40 43.79414 125.37021 15435 ft 245 kts 213°
2026-05-04 13:40 43.77771 125.36540 15860 ft 261 kts 186°
2026-05-04 13:41 43.76038 125.36915 16282 ft 268 kts 167°
2026-05-04 13:41 43.74350 125.37793 16696 ft 270 kts 159°
2026-05-04 13:41 43.72697 125.38818 17093 ft 272 kts 158°
2026-05-04 13:42 43.69323 125.40753 17860 ft 275 kts 161°
2026-05-04 13:42 43.67599 125.41635 18230 ft 277 kts 162°
2026-05-04 13:42 43.65836 125.42516 18597 ft 278 kts 162°
2026-05-04 13:42 43.64089 125.43406 18955 ft 280 kts 161°
2026-05-04 13:43 43.62376 125.44312 19294 ft 281 kts 160°
2026-05-04 13:43 43.60652 125.45263 19630 ft 282 kts 160°
2026-05-04 13:43 43.58906 125.46257 19961 ft 283 kts 159°
2026-05-04 13:43 43.57153 125.47272 20286 ft 284 kts 159°
2026-05-04 13:44 43.55405 125.48284 20602 ft 285 kts 159°
2026-05-04 13:44 43.53652 125.49289 20910 ft 286 kts 159°
2026-05-04 13:44 43.51875 125.50292 21214 ft 287 kts 160°
2026-05-04 13:44 43.50126 125.51266 21506 ft 288 kts 160°
2026-05-04 13:45 43.48337 125.52253 21795 ft 289 kts 160°
2026-05-04 13:45 43.46509 125.53055 22063 ft 287 kts 172°
2026-05-04 13:45 43.44633 125.53174 22316 ft 280 kts 193°
2026-05-04 13:45 43.42874 125.52459 22580 ft 271 kts 212°
2026-05-04 13:46 43.41340 125.51230 22844 ft 268 kts 221°
2026-05-04 13:46 43.39864 125.49855 23092 ft 270 kts 220°
2026-05-04 13:46 43.38296 125.48577 23333 ft 275 kts 214°
2026-05-04 13:46 43.36635 125.47474 23573 ft 278 kts 211°
2026-05-04 13:47 43.34933 125.46454 23801 ft 280 kts 210°
2026-05-04 13:47 43.33200 125.45405 23795 ft 291 kts 211°
2026-05-04 13:47 43.31411 125.44234 23774 ft 300 kts 213°
2026-05-04 13:47 43.29601 125.42957 23765 ft 308 kts 214°
2026-05-04 13:48 43.27777 125.41606 23761 ft 315 kts 215°
2026-05-04 13:48 43.25945 125.40228 23759 ft 322 kts 214°
2026-05-04 13:48 43.24075 125.38840 23757 ft 328 kts 214°
2026-05-04 13:48 43.22112 125.37421 23756 ft 334 kts 213°
2026-05-04 13:49 43.20104 125.36014 23755 ft 339 kts 212°
2026-05-04 13:49 43.18155 125.34678 23755 ft 344 kts 212°
2026-05-04 13:49 43.16082 125.33267 23754 ft 348 kts 212°
2026-05-04 13:49 43.14009 125.31849 23754 ft 351 kts 212°
2026-05-04 13:50 43.11920 125.30401 23754 ft 354 kts 212°
2026-05-04 13:50 43.09858 125.28954 23753 ft 356 kts 212°
2026-05-04 13:50 43.07739 125.27455 23753 ft 358 kts 212°
2026-05-04 13:50 43.05622 125.25959 23753 ft 360 kts 212°
2026-05-04 13:51 43.03505 125.24471 23751 ft 361 kts 212°
2026-05-04 13:51 43.01380 125.22988 23752 ft 361 kts 212°
2026-05-04 13:51 42.99252 125.21512 23752 ft 362 kts 212°
2026-05-04 13:51 42.97118 125.20036 23752 ft 362 kts 212°
2026-05-04 13:52 42.92703 125.17436 23747 ft 369 kts 198°
2026-05-04 13:52 42.90277 125.17083 23751 ft 376 kts 182°
2026-05-04 13:52 42.87831 125.17495 23755 ft 379 kts 171°
2026-05-04 13:53 42.85419 125.18216 23752 ft 379 kts 171°
2026-05-04 13:53 42.82953 125.18574 23745 ft 374 kts 185°
2026-05-04 13:53 42.80573 125.17974 23750 ft 366 kts 205°
2026-05-04 13:54 42.76684 125.14460 23756 ft 355 kts 226°
2026-05-04 13:54 42.74848 125.12505 23751 ft 359 kts 220°
2026-05-04 13:54 42.70585 125.09670 23753 ft 367 kts 205°
2026-05-04 13:55 42.68276 125.08532 23752 ft 367 kts 206°
2026-05-04 13:55 42.63967 125.05678 23752 ft 361 kts 216°
2026-05-04 13:55 42.61916 125.03971 23752 ft 361 kts 217°
2026-05-04 13:56 42.59880 125.02306 23752 ft 362 kts 215°
2026-05-04 13:56 42.57753 125.00764 23752 ft 364 kts 212°
2026-05-04 13:56 42.53428 124.98008 23752 ft 365 kts 210°
2026-05-04 13:57 42.51208 124.96602 23752 ft 364 kts 211°
2026-05-04 13:57 42.49029 124.95154 23752 ft 364 kts 212°
2026-05-04 13:58 42.42674 124.90555 23757 ft 363 kts 213°
2026-05-04 13:58 42.38407 124.87467 23831 ft 361 kts 212°
2026-05-04 13:58 42.36280 124.86000 23843 ft 361 kts 211°
2026-05-04 13:59 42.34099 124.84538 23850 ft 362 kts 211°
2026-05-04 13:59 42.31948 124.83109 23856 ft 362 kts 211°
2026-05-04 13:59 42.27680 124.80221 23862 ft 362 kts 212°
2026-05-04 14:00 42.25548 124.78739 23864 ft 362 kts 212°
2026-05-04 14:00 42.21280 124.75744 23868 ft 362 kts 212°
2026-05-04 14:00 42.19170 124.74277 23870 ft 362 kts 212°
2026-05-04 14:01 42.17025 124.72800 23872 ft 362 kts 212°
2026-05-04 14:01 42.14861 124.71323 23875 ft 362 kts 212°
2026-05-04 14:01 42.10577 124.68409 23877 ft 363 kts 212°
2026-05-04 14:02 42.08464 124.66965 23879 ft 363 kts 212°
2026-05-04 14:02 42.06321 124.65496 23882 ft 363 kts 212°
2026-05-04 14:02 42.04177 124.64022 23884 ft 363 kts 212°
2026-05-04 14:02 42.02043 124.62556 23885 ft 363 kts 212°
2026-05-04 14:03 41.99923 124.61102 23885 ft 362 kts 212°
2026-05-04 14:03 41.97772 124.59632 23887 ft 362 kts 212°
2026-05-04 14:03 41.95641 124.58147 23889 ft 361 kts 213°
2026-05-04 14:03 41.93535 124.56604 23890 ft 360 kts 214°
2026-05-04 14:04 41.89467 124.53385 23893 ft 358 kts 216°
2026-05-04 14:04 41.87441 124.51728 23894 ft 358 kts 216°
2026-05-04 14:04 41.85406 124.50089 23895 ft 358 kts 216°
2026-05-04 14:05 41.81345 124.46970 23896 ft 358 kts 214°
2026-05-04 14:05 41.79262 124.45433 23897 ft 358 kts 213°
2026-05-04 14:05 41.77201 124.43920 23899 ft 359 kts 213°
2026-05-04 14:06 41.75137 124.42388 23900 ft 359 kts 214°
2026-05-04 14:06 41.73109 124.40858 23902 ft 359 kts 214°
2026-05-04 14:06 41.71064 124.39294 23903 ft 359 kts 215°
2026-05-04 14:06 41.69005 124.37708 23904 ft 360 kts 215°
2026-05-04 14:07 41.66971 124.36144 23905 ft 360 kts 214°
2026-05-04 14:07 41.64918 124.34578 23905 ft 361 kts 214°
2026-05-04 14:07 41.62827 124.32996 23905 ft 361 kts 214°
2026-05-04 14:07 41.60774 124.31454 23906 ft 361 kts 214°
2026-05-04 14:08 41.58701 124.29900 23906 ft 362 kts 214°
2026-05-04 14:08 41.56638 124.28353 23906 ft 362 kts 214°
2026-05-04 14:08 41.54575 124.26801 23907 ft 362 kts 214°
2026-05-04 14:08 41.52501 124.25237 23907 ft 362 kts 214°
2026-05-04 14:09 41.48387 124.22131 23908 ft 362 kts 214°
2026-05-04 14:09 41.46340 124.20589 23908 ft 362 kts 214°
2026-05-04 14:10 41.42158 124.17479 23907 ft 364 kts 212°
2026-05-04 14:10 41.39880 124.16296 23904 ft 370 kts 198°
2026-05-04 14:10 41.37431 124.15966 23910 ft 376 kts 181°
2026-05-04 14:10 41.34967 124.16429 23914 ft 379 kts 170°
2026-05-04 14:11 41.32507 124.17197 23913 ft 379 kts 169°
2026-05-04 14:11 41.27525 124.17906 23912 ft 375 kts 184°
2026-05-04 14:11 41.25045 124.17761 23911 ft 375 kts 187°
2026-05-04 14:12 41.22571 124.17628 23909 ft 376 kts 184°
2026-05-04 14:12 41.20077 124.17744 23909 ft 378 kts 178°
2026-05-04 14:12 41.15122 124.18548 23910 ft 379 kts 175°
2026-05-04 14:13 41.12627 124.18928 23910 ft 378 kts 177°
2026-05-04 14:13 41.10140 124.19143 23911 ft 377 kts 180°
2026-05-04 14:13 41.07661 124.19242 23911 ft 377 kts 181°
2026-05-04 14:13 41.05201 124.19306 23912 ft 377 kts 181°
2026-05-04 14:14 41.02663 124.19421 23912 ft 378 kts 180°
2026-05-04 14:14 40.97677 124.20005 23915 ft 379 kts 176°
2026-05-04 14:14 40.95234 124.20398 23915 ft 379 kts 175°
2026-05-04 14:15 40.90294 124.21142 23916 ft 379 kts 177°
2026-05-04 14:15 40.85380 124.21677 23917 ft 378 kts 179°
2026-05-04 14:16 40.80396 124.22117 23917 ft 378 kts 179°
2026-05-04 14:16 40.77895 124.22366 23917 ft 378 kts 178°
2026-05-04 14:17 40.72880 124.22962 23917 ft 378 kts 177°
2026-05-04 14:17 40.70406 124.23278 23917 ft 378 kts 177°
2026-05-04 14:17 40.65428 124.23884 23917 ft 378 kts 178°
2026-05-04 14:18 40.62971 124.24158 23917 ft 378 kts 178°
2026-05-04 14:18 40.57977 124.24691 23917 ft 378 kts 178°
2026-05-04 14:19 40.53011 124.25237 23387 ft 374 kts 178°
2026-05-04 14:19 40.50535 124.25521 23096 ft 371 kts 178°
2026-05-04 14:19 40.48079 124.25809 22809 ft 369 kts 178°
2026-05-04 14:19 40.45674 124.26091 22525 ft 367 kts 178°
2026-05-04 14:20 40.43266 124.26369 22240 ft 365 kts 178°
2026-05-04 14:20 40.40860 124.26642 21953 ft 363 kts 178°
2026-05-04 14:20 40.38504 124.26905 21671 ft 362 kts 178°
2026-05-04 14:21 40.33747 124.27430 21098 ft 359 kts 178°
2026-05-04 14:21 40.31394 124.27702 20812 ft 358 kts 177°
2026-05-04 14:21 40.29031 124.28185 20520 ft 358 kts 169°
2026-05-04 14:21 40.26819 124.29260 20229 ft 360 kts 152°
2026-05-04 14:22 40.24953 124.31246 19940 ft 359 kts 130°
2026-05-04 14:22 40.23742 124.33851 19656 ft 354 kts 109°
2026-05-04 14:22 40.23214 124.36828 19374 ft 348 kts 92°
2026-05-04 14:22 40.23083 124.39850 19086 ft 345 kts 89°
2026-05-04 14:23 40.22345 124.45803 18509 ft 348 kts 106°
2026-05-04 14:23 40.21543 124.48599 18224 ft 347 kts 111°
2026-05-04 14:23 40.20624 124.51304 17941 ft 344 kts 115°
2026-05-04 14:24 40.19499 124.53930 17629 ft 342 kts 122°
2026-05-04 14:24 40.18178 124.56415 17264 ft 340 kts 126°
2026-05-04 14:24 40.16829 124.58752 16903 ft 338 kts 127°
2026-05-04 14:24 40.15497 124.61124 16541 ft 333 kts 124°
2026-05-04 14:25 40.14265 124.63519 16179 ft 329 kts 122°
2026-05-04 14:25 40.12014 124.68268 15463 ft 319 kts 120°
2026-05-04 14:25 40.10929 124.70565 15109 ft 315 kts 121°
2026-05-04 14:26 40.09809 124.72867 14747 ft 311 kts 122°
2026-05-04 14:26 40.08683 124.75108 14387 ft 307 kts 123°
2026-05-04 14:26 40.07571 124.77267 14033 ft 303 kts 123°
2026-05-04 14:26 40.06448 124.79432 13673 ft 300 kts 123°
2026-05-04 14:27 40.05340 124.81580 13313 ft 297 kts 123°
2026-05-04 14:27 40.04256 124.83697 12955 ft 294 kts 123°
2026-05-04 14:27 40.03184 124.85804 12597 ft 291 kts 122°
2026-05-04 14:27 40.02128 124.87888 12240 ft 289 kts 122°
2026-05-04 14:28 40.01085 124.89950 11884 ft 287 kts 122°
2026-05-04 14:28 40.00053 124.91989 11529 ft 285 kts 122°
2026-05-04 14:28 39.99010 124.94049 11167 ft 283 kts 122°
2026-05-04 14:28 39.98007 124.96033 10817 ft 281 kts 122°
2026-05-04 14:29 39.95966 125.00054 10101 ft 277 kts 122°
2026-05-04 14:29 39.93987 125.03928 9401 ft 275 kts 123°
2026-05-04 14:30 39.92970 125.05928 9037 ft 273 kts 123°
2026-05-04 14:30 39.91955 125.07932 8672 ft 272 kts 123°
2026-05-04 14:30 39.89981 125.11840 7955 ft 270 kts 123°
2026-05-04 14:31 39.89005 125.13762 7601 ft 269 kts 123°
2026-05-04 14:31 39.87018 125.17642 6879 ft 267 kts 124°
2026-05-04 14:32 39.85071 125.21401 6168 ft 263 kts 124°
2026-05-04 14:32 39.84097 125.23303 5807 ft 262 kts 124°
2026-05-04 14:32 39.83134 125.25195 5446 ft 261 kts 124°
2026-05-04 14:32 39.82178 125.27075 5087 ft 260 kts 124°
2026-05-04 14:33 39.81230 125.28941 4729 ft 258 kts 126°
2026-05-04 14:33 39.80320 125.30756 4371 ft 247 kts 126°
2026-05-04 14:33 39.79439 125.32522 4065 ft 234 kts 126°
2026-05-04 14:33 39.78603 125.34195 3766 ft 222 kts 127°
2026-05-04 14:34 39.77810 125.35786 3469 ft 213 kts 127°
2026-05-04 14:34 39.77057 125.37324 3179 ft 205 kts 127°
2026-05-04 14:34 39.76354 125.38865 3064 ft 205 kts 124°
2026-05-04 14:34 39.75682 125.40434 3056 ft 206 kts 123°
2026-05-04 14:35 39.75000 125.42002 3015 ft 208 kts 123°
2026-05-04 14:35 39.74307 125.43577 3002 ft 208 kts 123°
2026-05-04 14:35 39.73584 125.45151 2991 ft 207 kts 129°
2026-05-04 14:35 39.72629 125.46368 2991 ft 199 kts 152°
2026-05-04 14:36 39.71437 125.47076 2997 ft 193 kts 169°
2026-05-04 14:36 39.70191 125.47532 2995 ft 192 kts 172°
2026-05-04 14:36 39.68950 125.47984 2995 ft 193 kts 170°
2026-05-04 14:36 39.67695 125.48476 2994 ft 193 kts 169°
2026-05-04 14:37 39.66453 125.48987 2994 ft 193 kts 169°
2026-05-04 14:37 39.65222 125.49514 2994 ft 193 kts 168°
2026-05-04 14:37 39.64003 125.50122 2982 ft 199 kts 157°
2026-05-04 14:37 39.63023 125.51315 2992 ft 206 kts 129°
2026-05-04 14:38 39.62380 125.52912 2997 ft 208 kts 116°
2026-05-04 14:38 39.61819 125.54576 2994 ft 207 kts 118°
2026-05-04 14:38 39.61207 125.56191 2994 ft 207 kts 121°
2026-05-04 14:38 39.60568 125.57766 2994 ft 206 kts 122°
2026-05-04 14:39 39.59913 125.59364 2993 ft 206 kts 122°
2026-05-04 14:39 39.59259 125.60961 2994 ft 206 kts 121°
2026-05-04 14:39 39.58617 125.62539 2993 ft 206 kts 121°
2026-05-04 14:40 39.57249 125.65688 2984 ft 203 kts 133°
2026-05-04 14:40 39.56550 125.66521 2987 ft 195 kts 153°
2026-05-04 14:40 39.55342 125.67113 2995 ft 186 kts 176°
2026-05-04 14:40 39.54095 125.67257 2997 ft 183 kts 185°
2026-05-04 14:41 39.52874 125.67304 2991 ft 178 kts 185°
2026-05-04 14:41 39.51723 125.67373 3110 ft 177 kts 184°
2026-05-04 14:41 39.49345 125.67565 3068 ft 176 kts 184°
2026-05-04 14:42 39.47000 125.67718 2994 ft 168 kts 185°
2026-05-04 14:42 39.45883 125.67768 2981 ft 162 kts 186°
2026-05-04 14:42 39.44799 125.67805 2977 ft 154 kts 187°
2026-05-04 14:43 39.43773 125.67827 2981 ft 150 kts 188°
2026-05-04 14:43 39.42790 125.67835 2988 ft 148 kts 188°
2026-05-04 14:43 39.41823 125.67831 2989 ft 147 kts 189°
2026-05-04 14:43 39.40812 125.67820 2916 ft 148 kts 189°
2026-05-04 14:44 39.39831 125.67812 2730 ft 141 kts 189°
2026-05-04 14:44 39.38897 125.67813 2551 ft 135 kts 190°
2026-05-04 14:44 39.38014 125.67819 2372 ft 126 kts 190°
2026-05-04 14:44 39.37181 125.67828 2195 ft 120 kts 191°
2026-05-04 14:45 39.36356 125.67820 2086 ft 123 kts 192°
2026-05-04 14:45 39.35498 125.67793 1950 ft 128 kts 193°
2026-05-04 14:45 39.34605 125.67752 1795 ft 137 kts 192°
2026-05-04 14:45 39.33651 125.67704 1601 ft 144 kts 191°
2026-05-04 14:46 39.32662 125.67654 1364 ft 143 kts 189°
2026-05-04 14:46 39.31716 125.67596 1176 ft 139 kts 188°
2026-05-04 14:46 39.30772 125.67584 1024 ft 137 kts 182°
2026-05-04 14:46 39.29852 125.67610 825 ft 135 kts 180°
2026-05-04 14:47 39.28960 125.67637 639 ft 129 kts 181°
2026-05-04 14:47 39.28094 125.67663 428 ft 128 kts 179°
2026-05-04 14:47 39.27237 125.67656 278 ft 126 kts 185°
2026-05-04 14:47 39.26398 125.67645 158 ft 121 kts 182°
2026-05-04 14:48 39.25639 125.67639 110 ft 93 kts 187°
2026-05-04 14:48 39.25162 125.67606 110 ft 47 kts 181°
2026-05-04 14:48 39.25052 125.67602 110 ft 14 kts 181°
2026-05-04 14:48 39.24929 125.67598 110 ft 16 kts 181°
2026-05-04 14:49 39.24875 125.67596 110 ft 7 kts 182°
2026-05-04 14:49 39.24785 125.67592 110 ft 16 kts 181°